| time (UTC) | temp C | wind direction | speed KPH | gust KPH | rain 1hr cm | rain 24hr cm | rain mn cm | humidity % | barometer mb |
| 20260904150546 | 18 | 0 | 4.8 | 35.4 | 0.05 | 0.05 | 0.05 | 87 | 1012.6 |
| 20260904150100 | 20 | 340 | 6.4 | 29.0 | 0.00 | 0.00 | 0.00 | 85 | 1012.4 |
| 20260904145546 | 21 | 219 | 3.2 | 32.2 | 0.00 | 0.00 | 0.00 | 84 | 1012.1 |
| 20260904145046 | 21 | 227 | 3.2 | 45.1 | 0.00 | 0.00 | 0.00 | 82 | 1011.9 |
| 20260904144606 | 22 | 258 | 12.9 | 45.1 | 0.00 | 0.00 | 0.00 | 78 | 1011.7 |
| 20260904144045 | 22 | 255 | 8.0 | 33.8 | 0.00 | 0.00 | 0.00 | 76 | 1011.7 |
| 20260904143545 | 22 | 202 | 6.4 | 37.0 | 0.00 | 0.00 | 0.00 | 76 | 1011.3 |
| 20260904143107 | 22 | 248 | 17.7 | 37.0 | 0.00 | 0.00 | 0.00 | 75 | 1011.4 |
| 20260904142545 | 22 | 0 | 3.2 | 37.0 | 0.00 | 0.00 | 0.00 | 75 | 1011.3 |
| 20260904142046 | 22 | 0 | 8.0 | 38.6 | 0.00 | 0.00 | 0.00 | 75 | 1011.4 |
| 20260904141558 | 22 | 205 | 17.7 | 38.6 | 0.00 | 0.00 | 0.00 | 75 | 1011.4 |
| 20260904141045 | 23 | 214 | 11.3 | 37.0 | 0.00 | 0.00 | 0.00 | 75 | 1011.6 |
| 20260904140543 | 22 | 223 | 11.3 | 41.8 | 0.00 | 0.00 | 0.00 | 76 | 1011.4 |
| 20260904140105 | 22 | 0 | 12.9 | 45.1 | 0.00 | 0.00 | 0.00 | 76 | 1011.4 |
| 20260904135546 | 22 | 221 | 16.1 | 56.3 | 0.00 | 0.00 | 0.00 | 75 | 1011.7 |
| 20260904135045 | 23 | 248 | 19.3 | 56.3 | 0.00 | 0.00 | 0.00 | 74 | 1011.6 |
| 20260904134606 | 23 | 248 | 17.7 | 48.3 | 0.00 | 0.00 | 0.00 | 73 | 1011.4 |
| 20260904134050 | 23 | 247 | 14.5 | 41.8 | 0.00 | 0.00 | 0.00 | 72 | 1011.4 |
| 20260904133544 | 23 | 238 | 12.9 | 41.8 | 0.00 | 0.00 | 0.00 | 73 | 1011.3 |
| 20260904133116 | 23 | 245 | 17.7 | 40.2 | 0.00 | 0.00 | 0.00 | 72 | 1011.4 |
| 20260904132546 | 23 | 251 | 8.0 | 33.8 | 0.00 | 0.00 | 0.00 | 72 | 1011.5 |
| 20260904132045 | 23 | 219 | 8.0 | 35.4 | 0.00 | 0.00 | 0.00 | 74 | 1011.4 |
| 20260904131607 | 22 | 212 | 3.2 | 35.4 | 0.00 | 0.00 | 0.00 | 73 | 1011.4 |
| 20260904131043 | 22 | 0 | 8.0 | 49.9 | 0.00 | 0.00 | 0.00 | 73 | 1011.3 |
| 20260904130544 | 23 | 245 | 17.7 | 49.9 | 0.00 | 0.00 | 0.00 | 72 | 1011.4 |
| 20260904130108 | 23 | 243 | 12.9 | 37.0 | 0.00 | 0.00 | 0.00 | 70 | 1011.4 |
| 20260904125545 | 23 | 250 | 4.8 | 35.4 | 0.00 | 0.00 | 0.00 | 71 | 1011.3 |
| 20260904125045 | 23 | 225 | 12.9 | 53.1 | 0.00 | 0.00 | 0.00 | 71 | 1011.3 |
| 20260904124605 | 23 | 287 | 20.9 | 53.1 | 0.00 | 0.00 | 0.00 | 69 | 1011.3 |
| 20260904124045 | 23 | 220 | 14.5 | 37.0 | 0.00 | 0.00 | 0.00 | 68 | 1011.2 |
| 20260904123546 | 24 | 246 | 4.8 | 40.2 | 0.00 | 0.00 | 0.00 | 68 | 1011.4 |
| 20260904123059 | 24 | 244 | 9.7 | 40.2 | 0.00 | 0.00 | 0.00 | 67 | 1011.2 |
| 20260904122546 | 24 | 286 | 11.3 | 35.4 | 0.00 | 0.00 | 0.00 | 69 | 1011.4 |
| 20260904122046 | 23 | 0 | 4.8 | 35.4 | 0.00 | 0.00 | 0.00 | 70 | 1011.4 |
| 20260904121605 | 23 | 0 | 12.9 | 38.6 | 0.00 | 0.00 | 0.00 | 68 | 1011.4 |
| 20260904121045 | 23 | 238 | 19.3 | 40.2 | 0.00 | 0.00 | 0.00 | 69 | 1011.4 |
| 20260904120546 | 23 | 248 | 14.5 | 40.2 | 0.00 | 0.00 | 0.00 | 71 | 1011.5 |
| 20260904120104 | 23 | 225 | 17.7 | 46.7 | 0.00 | 0.00 | 0.00 | 70 | 1011.6 |
| 20260904115546 | 23 | 0 | 19.3 | 46.7 | 0.00 | 0.00 | 0.00 | 71 | 1011.5 |
| 20260904115046 | 23 | 220 | 12.9 | 38.6 | 0.00 | 0.00 | 0.00 | 71 | 1011.6 |
| 20260904114608 | 23 | 286 | 8.0 | 43.5 | 0.00 | 0.00 | 0.00 | 72 | 1011.8 |
| 20260904114044 | 22 | 236 | 12.9 | 43.5 | 0.00 | 0.00 | 0.00 | 73 | 1011.7 |
| 20260904113546 | 22 | 243 | 16.1 | 43.5 | 0.00 | 0.00 | 0.00 | 73 | 1011.8 |
| 20260904113106 | 22 | 214 | 11.3 | 37.0 | 0.00 | 0.00 | 0.00 | 74 | 1011.9 |
| 20260904112546 | 22 | 250 | 6.4 | 37.0 | 0.00 | 0.00 | 0.00 | 74 | 1011.9 |
| 20260904112043 | 22 | 249 | 9.7 | 41.8 | 0.00 | 0.00 | 0.00 | 74 | 1011.8 |
| 20260904111604 | 22 | 0 | 17.7 | 41.8 | 0.00 | 0.00 | 0.00 | 73 | 1012.0 |
| 20260904111045 | 22 | 246 | 12.9 | 41.8 | 0.00 | 0.00 | 0.00 | 73 | 1012.0 |
| 20260904110545 | 22 | 218 | 17.7 | 41.8 | 0.00 | 0.00 | 0.00 | 73 | 1012.0 |
| 20260904110108 | 22 | 242 | 6.4 | 38.6 | 0.00 | 0.00 | 0.00 | 74 | 1012.2 |
| 20260904105547 | 22 | 250 | 12.9 | 38.6 | 0.00 | 0.00 | 0.00 | 74 | 1012.0 |
| 20260904105044 | 22 | 249 | 12.9 | 38.6 | 0.00 | 0.00 | 0.00 | 74 | 1012.1 |
| 20260904104617 | 22 | 231 | 6.4 | 30.6 | 0.00 | 0.00 | 0.00 | 74 | 1012.1 |
| 20260904104043 | 22 | 248 | 11.3 | 30.6 | 0.00 | 0.00 | 0.00 | 74 | 1012.1 |
| 20260904103543 | 22 | 228 | 8.0 | 37.0 | 0.00 | 0.00 | 0.00 | 75 | 1012.1 |
| 20260904103103 | 22 | 231 | 11.3 | 38.6 | 0.00 | 0.00 | 0.00 | 75 | 1012.1 |
| 20260904102548 | 22 | 216 | 12.9 | 40.2 | 0.00 | 0.00 | 0.00 | 74 | 1012.0 |
| 20260904102046 | 22 | 185 | 19.3 | 40.2 | 0.00 | 0.00 | 0.00 | 74 | 1012.0 |
| 20260904101605 | 22 | 217 | 11.3 | 49.9 | 0.00 | 0.00 | 0.00 | 74 | 1011.9 |
| 20260904101045 | 22 | 223 | 16.1 | 49.9 | 0.00 | 0.00 | 0.00 | 75 | 1011.9 |
| 20260904100545 | 22 | 205 | 14.5 | 33.8 | 0.00 | 0.00 | 0.00 | 75 | 1011.9 |
| 20260904100119 | 22 | 261 | 3.2 | 51.5 | 0.00 | 0.00 | 0.00 | 76 | 1011.9 |
| 20260904095545 | 22 | 212 | 9.7 | 51.5 | 0.00 | 0.13 | 0.00 | 75 | 1012.0 |
| 20260904095046 | 22 | 227 | 16.1 | 51.5 | 0.00 | 0.13 | 0.00 | 75 | 1012.2 |
| 20260904094617 | 22 | 178 | 24.1 | 46.7 | 0.00 | 0.13 | 0.00 | 74 | 1012.0 |
| 20260904094044 | 23 | 199 | 12.9 | 45.1 | 0.00 | 0.13 | 0.00 | 74 | 1012.1 |
| 20260904093544 | 23 | 211 | 12.9 | 45.1 | 0.00 | 0.13 | 0.00 | 74 | 1012.1 |
| 20260904093107 | 23 | 232 | 19.3 | 45.1 | 0.00 | 0.13 | 0.00 | 75 | 1012.0 |
| 20260904092543 | 22 | 200 | 22.5 | 40.2 | 0.00 | 0.13 | 0.00 | 76 | 1012.0 |
| 20260904092045 | 22 | 0 | 11.3 | 33.8 | 0.00 | 0.13 | 0.00 | 77 | 1012.2 |
| 20260904091604 | 22 | 188 | 9.7 | 40.2 | 0.00 | 0.13 | 0.00 | 76 | 1012.2 |
| 20260904091044 | 22 | 227 | 11.3 | 40.2 | 0.00 | 0.13 | 0.00 | 77 | 1012.2 |
| 20260904090545 | 22 | 223 | 12.9 | 38.6 | 0.00 | 0.13 | 0.00 | 78 | 1012.4 |
| 20260904090104 | 22 | 246 | 8.0 | 35.4 | 0.00 | 0.13 | 0.00 | 78 | 1012.5 |
| 20260904085544 | 22 | 0 | 11.3 | 38.6 | 0.00 | 0.46 | 0.00 | 79 | 1012.5 |
| 20260904085045 | 22 | 227 | 8.0 | 38.6 | 0.00 | 0.46 | 0.00 | 79 | 1012.7 |
| 20260904084604 | 21 | 232 | 11.3 | 37.0 | 0.00 | 0.46 | 0.00 | 80 | 1012.8 |
| 20260904084045 | 21 | 238 | 3.2 | 27.4 | 0.00 | 0.46 | 0.00 | 81 | 1012.7 |
| 20260904083543 | 21 | 244 | 8.0 | 25.7 | 0.00 | 0.46 | 0.00 | 81 | 1012.8 |
| 20260904083106 | 21 | 223 | 6.4 | 29.0 | 0.00 | 0.46 | 0.00 | 81 | 1012.8 |
| 20260904082545 | 21 | 207 | 6.4 | 29.0 | 0.00 | 0.46 | 0.00 | 81 | 1012.8 |
| 20260904082048 | 21 | 201 | 11.3 | 32.2 | 0.00 | 0.46 | 0.00 | 80 | 1012.9 |
| 20260904081604 | 21 | 258 | 12.9 | 32.2 | 0.00 | 0.46 | 0.00 | 80 | 1013.0 |
| 20260904081044 | 21 | 227 | 9.7 | 32.2 | 0.00 | 0.46 | 0.00 | 80 | 1013.0 |
| 20260904080545 | 21 | 240 | 6.4 | 32.2 | 0.00 | 0.46 | 0.00 | 80 | 1013.0 |
| 20260904080135 | 21 | 246 | 9.7 | 32.2 | 0.00 | 0.46 | 0.00 | 80 | 1012.9 |
| 20260904075544 | 21 | 250 | 8.0 | 30.6 | 0.00 | 0.46 | 0.00 | 80 | 1012.8 |
| 20260904075046 | 21 | 0 | 3.2 | 30.6 | 0.00 | 0.46 | 0.00 | 80 | 1012.9 |
| 20260904074610 | 21 | 241 | 14.5 | 37.0 | 0.00 | 0.46 | 0.00 | 80 | 1012.9 |
| 20260904074044 | 21 | 247 | 8.0 | 37.0 | 0.00 | 0.46 | 0.00 | 80 | 1012.9 |
| 20260904073544 | 21 | 209 | 11.3 | 37.0 | 0.00 | 0.46 | 0.00 | 80 | 1013.0 |
| 20260904073105 | 21 | 250 | 14.5 | 35.4 | 0.00 | 0.46 | 0.00 | 81 | 1013.0 |
| 20260904072545 | 21 | 219 | 16.1 | 35.4 | 0.00 | 0.46 | 0.00 | 82 | 1013.2 |
| 20260904072045 | 21 | 240 | 9.7 | 35.4 | 0.00 | 0.46 | 0.00 | 81 | 1013.3 |
| 20260904071606 | 21 | 231 | 14.5 | 35.4 | 0.00 | 0.46 | 0.00 | 82 | 1013.3 |
| 20260904071045 | 21 | 246 | 14.5 | 33.8 | 0.00 | 0.46 | 0.00 | 82 | 1013.3 |
| 20260904070545 | 21 | 256 | 16.1 | 43.5 | 0.00 | 0.46 | 0.00 | 82 | 1013.5 |
| 20260904070101 | 20 | 0 | 12.9 | 43.5 | 0.00 | 0.46 | 0.00 | 83 | 1013.5 |
| 20260904065543 | 20 | 232 | 8.0 | 33.8 | 0.00 | 0.46 | 0.00 | 83 | 1013.6 |
| 20260904065045 | 20 | 224 | 11.3 | 33.8 | 0.00 | 0.46 | 0.00 | 83 | 1013.5 |
| 20260904064605 | 20 | 238 | 6.4 | 30.6 | 0.00 | 0.46 | 0.00 | 83 | 1013.6 |
| 20260904064046 | 20 | 235 | 9.7 | 27.4 | 0.00 | 0.46 | 0.00 | 84 | 1013.6 |
| 20260904063544 | 20 | 248 | 8.0 | 30.6 | 0.00 | 0.46 | 0.00 | 84 | 1013.4 |
| 20260904063105 | 20 | 224 | 6.4 | 30.6 | 0.00 | 0.46 | 0.00 | 85 | 1013.5 |
| 20260904062545 | 20 | 227 | 9.7 | 27.4 | 0.00 | 0.46 | 0.00 | 85 | 1013.6 |
| 20260904062043 | 20 | 0 | 9.7 | 27.4 | 0.00 | 0.46 | 0.00 | 85 | 1013.6 |
| 20260904061603 | 20 | 225 | 9.7 | 27.4 | 0.00 | 0.46 | 0.00 | 86 | 1013.8 |
| 20260904061045 | 20 | 194 | 8.0 | 27.4 | 0.00 | 0.46 | 0.00 | 85 | 1013.8 |
| 20260904060545 | 20 | 245 | 9.7 | 27.4 | 0.00 | 0.46 | 0.00 | 85 | 1013.9 |
| 20260904060121 | 20 | 251 | 8.0 | 24.1 | 0.00 | 0.46 | 0.00 | 86 | 1013.9 |
| 20260904055543 | 20 | 232 | 3.2 | 25.7 | 0.00 | 0.46 | 0.00 | 86 | 1013.9 |
| 20260904055044 | 20 | 195 | 8.0 | 25.7 | 0.00 | 0.46 | 0.00 | 86 | 1014.0 |
| 20260904054601 | 20 | 221 | 6.4 | 27.4 | 0.00 | 0.46 | 0.00 | 86 | 1014.1 |
| 20260904054044 | 20 | 0 | 4.8 | 29.0 | 0.00 | 0.46 | 0.00 | 86 | 1014.2 |
| 20260904053542 | 20 | 0 | 4.8 | 29.0 | 0.00 | 0.46 | 0.00 | 86 | 1014.2 |
| 20260904053145 | 20 | 242 | 8.0 | 27.4 | 0.00 | 0.46 | 0.00 | 86 | 1014.2 |
| 20260904052546 | 20 | 243 | 4.8 | 29.0 | 0.00 | 0.46 | 0.00 | 86 | 1014.3 |
| 20260904052046 | 20 | 0 | 1.6 | 29.0 | 0.00 | 0.46 | 0.00 | 86 | 1014.3 |
| 20260904051614 | 20 | 0 | 4.8 | 29.0 | 0.00 | 0.46 | 0.00 | 87 | 1014.5 |
| 20260904051045 | 20 | 207 | 6.4 | 29.0 | 0.00 | 0.46 | 0.00 | 86 | 1014.3 |
| 20260904050544 | 20 | 0 | 9.7 | 29.0 | 0.00 | 0.46 | 0.00 | 86 | 1014.3 |
| 20260904050058 | 20 | 263 | 4.8 | 37.0 | 0.00 | 0.46 | 0.00 | 86 | 1014.4 |
| 20260904045542 | 20 | 283 | 9.7 | 37.0 | 0.00 | 0.46 | 0.00 | 86 | 1014.5 |
| 20260904045042 | 20 | 220 | 8.0 | 29.0 | 0.00 | 0.46 | 0.00 | 87 | 1014.5 |
| 20260904044611 | 20 | 239 | 6.4 | 27.4 | 0.00 | 0.46 | 0.00 | 87 | 1014.5 |
| 20260904044046 | 20 | 0 | 8.0 | 27.4 | 0.00 | 0.46 | 0.00 | 87 | 1014.4 |
| 20260904043545 | 20 | 258 | 3.2 | 24.1 | 0.00 | 0.46 | 0.00 | 87 | 1014.4 |
| 20260904043114 | 20 | 0 | 6.4 | 24.1 | 0.00 | 0.46 | 0.00 | 87 | 1014.3 |
| 20260904042545 | 20 | 215 | 6.4 | 30.6 | 0.00 | 0.46 | 0.00 | 87 | 1014.5 |
| 20260904042045 | 20 | 0 | 8.0 | 30.6 | 0.00 | 0.46 | 0.00 | 87 | 1014.6 |
| 20260904041605 | 20 | 238 | 3.2 | 27.4 | 0.00 | 0.46 | 0.00 | 87 | 1014.6 |
| 20260904041045 | 20 | 242 | 4.8 | 27.4 | 0.00 | 0.46 | 0.00 | 87 | 1014.8 |
| 20260904040542 | 20 | 230 | 11.3 | 29.0 | 0.00 | 0.46 | 0.00 | 87 | 1014.7 |
| 20260904040105 | 20 | 243 | 6.4 | 29.0 | 0.00 | 0.46 | 0.00 | 87 | 1014.8 |
| 20260904035545 | 20 | 252 | 8.0 | 29.0 | 0.00 | 0.46 | 0.00 | 87 | 1014.9 |
| 20260904035043 | 20 | 207 | 3.2 | 22.5 | 0.00 | 0.46 | 0.00 | 87 | 1015.0 |
| 20260904034603 | 20 | 0 | 4.8 | 22.5 | 0.00 | 0.46 | 0.00 | 87 | 1015.2 |
| 20260904034045 | 20 | 0 | 1.6 | 25.7 | 0.00 | 0.46 | 0.00 | 87 | 1015.1 |
| 20260904033546 | 20 | 225 | 3.2 | 25.7 | 0.00 | 0.46 | 0.00 | 87 | 1015.1 |
| 20260904033107 | 20 | 0 | 8.0 | 30.6 | 0.00 | 0.46 | 0.00 | 87 | 1015.1 |
| 20260904032545 | 20 | 200 | 6.4 | 30.6 | 0.00 | 0.46 | 0.00 | 87 | 1015.2 |
| 20260904032044 | 20 | 223 | 4.8 | 27.4 | 0.00 | 0.46 | 0.00 | 87 | 1015.3 |
| 20260904031556 | 20 | 0 | 1.6 | 22.5 | 0.00 | 0.46 | 0.00 | 87 | 1015.3 |
| 20260904031044 | 20 | 230 | 4.8 | 22.5 | 0.00 | 0.46 | 0.00 | 87 | 1015.5 |
| 20260904030542 | 20 | 0 | 1.6 | 32.2 | 0.00 | 0.46 | 0.00 | 87 | 1015.5 |
| 20260904030056 | 20 | 0 | 6.4 | 32.2 | 0.00 | 0.46 | 0.00 | 87 | 1015.7 |
| 20260904025546 | 20 | 258 | 4.8 | 24.1 | 0.00 | 0.46 | 0.00 | 87 | 1015.9 |
| 20260904025044 | 20 | 229 | 6.4 | 22.5 | 0.00 | 0.46 | 0.00 | 87 | 1015.7 |
| 20260904024622 | 20 | 0 | 1.6 | 25.7 | 0.00 | 0.46 | 0.00 | 87 | 1015.8 |
| 20260904024048 | 20 | 246 | 8.0 | 25.7 | 0.00 | 0.46 | 0.00 | 87 | 1015.8 |
| 20260904023545 | 20 | 247 | 6.4 | 29.0 | 0.00 | 0.46 | 0.00 | 87 | 1015.8 |
| 20260904023108 | 20 | 0 | 8.0 | 32.2 | 0.00 | 0.46 | 0.00 | 87 | 1015.9 |
| 20260904022545 | 20 | 249 | 8.0 | 32.2 | 0.00 | 0.46 | 0.00 | 87 | 1016.0 |
| 20260904022044 | 20 | 0 | 3.2 | 32.2 | 0.00 | 0.46 | 0.00 | 88 | 1016.0 |
| 20260904021603 | 20 | 236 | 0.0 | 22.5 | 0.00 | 0.46 | 0.00 | 88 | 1016.0 |
| 20260904021045 | 20 | 254 | 3.2 | 22.5 | 0.00 | 0.46 | 0.00 | 88 | 1016.1 |
| 20260904020544 | 20 | 249 | 1.6 | 19.3 | 0.00 | 0.46 | 0.00 | 88 | 1016.2 |
| 20260904020104 | 20 | 0 | 3.2 | 35.4 | 0.00 | 0.46 | 0.00 | 88 | 1016.2 |
| 20260904015545 | 20 | 224 | 8.0 | 35.4 | 0.00 | 0.46 | 0.00 | 88 | 1016.3 |
| 20260904015045 | 20 | 0 | 6.4 | 22.5 | 0.00 | 0.46 | 0.00 | 88 | 1016.4 |
| 20260904014612 | 20 | 0 | 3.2 | 22.5 | 0.00 | 0.46 | 0.00 | 88 | 1016.3 |
| 20260904014045 | 20 | 225 | 4.8 | 22.5 | 0.00 | 0.46 | 0.00 | 88 | 1016.3 |
| 20260904013547 | 20 | 231 | 1.6 | 35.4 | 0.00 | 0.46 | 0.00 | 88 | 1016.3 |
| 20260904013106 | 20 | 228 | 3.2 | 35.4 | 0.00 | 0.46 | 0.00 | 88 | 1016.3 |
| 20260904012544 | 20 | 192 | 1.6 | 22.5 | 0.00 | 0.46 | 0.00 | 88 | 1016.4 |
| 20260904012044 | 20 | 248 | 6.4 | 24.1 | 0.00 | 0.46 | 0.00 | 89 | 1016.3 |
| 20260904011603 | 20 | 238 | 4.8 | 25.7 | 0.00 | 0.46 | 0.00 | 89 | 1016.3 |
| 20260904011046 | 20 | 232 | 8.0 | 25.7 | 0.00 | 0.46 | 0.00 | 89 | 1016.4 |
| 20260904010545 | 20 | 249 | 3.2 | 20.9 | 0.00 | 0.46 | 0.00 | 89 | 1016.4 |
| 20260904010106 | 20 | 231 | 4.8 | 22.5 | 0.00 | 0.46 | 0.00 | 89 | 1016.6 |
| 20260904005544 | 20 | 0 | 4.8 | 22.5 | 0.00 | 0.46 | 0.00 | 89 | 1016.6 |
| 20260904005044 | 19 | 0 | 4.8 | 16.1 | 0.00 | 0.46 | 0.00 | 89 | 1016.5 |
| 20260904004604 | 19 | 222 | 6.4 | 25.7 | 0.00 | 0.46 | 0.00 | 89 | 1016.6 |
| 20260904004045 | 19 | 227 | 3.2 | 25.7 | 0.00 | 0.46 | 0.00 | 90 | 1016.6 |
| 20260904003544 | 19 | 0 | 1.6 | 22.5 | 0.00 | 0.46 | 0.00 | 90 | 1016.7 |
| 20260904003110 | 19 | 0 | 4.8 | 22.5 | 0.00 | 0.46 | 0.00 | 90 | 1016.8 |
| 20260904002545 | 19 | 200 | 1.6 | 20.9 | 0.00 | 0.46 | 0.00 | 90 | 1016.9 |
| 20260904002044 | 19 | 217 | 1.6 | 16.1 | 0.00 | 0.46 | 0.00 | 90 | 1017.0 |
| 20260904001610 | 19 | 0 | 1.6 | 16.1 | 0.00 | 0.46 | 0.00 | 90 | 1017.1 |
| 20260904001043 | 19 | 0 | 0.0 | 17.7 | 0.00 | 0.46 | 0.00 | 90 | 1017.1 |
| 20260904000544 | 19 | 223 | 3.2 | 17.7 | 0.00 | 0.46 | 0.00 | 90 | 1017.0 |
| 20260904000117 | 19 | 232 | 3.2 | 16.1 | 0.00 | 0.46 | 0.00 | 90 | 1017.1 |
| 20260903235544 | 19 | 254 | 0.0 | 14.5 | 0.00 | 0.46 | 0.00 | 90 | 1017.1 |
| 20260903235045 | 19 | 0 | 0.0 | 19.3 | 0.00 | 0.46 | 0.00 | 91 | 1017.2 |
| 20260903234556 | 19 | 212 | 1.6 | 19.3 | 0.00 | 0.46 | 0.00 | 91 | 1017.3 |
| 20260903234045 | 19 | 248 | 0.0 | 20.9 | 0.00 | 0.46 | 0.00 | 91 | 1017.4 |
| 20260903233543 | 19 | 0 | 1.6 | 20.9 | 0.00 | 0.46 | 0.00 | 91 | 1017.4 |
| 20260903233121 | 19 | 255 | 1.6 | 20.9 | 0.00 | 0.46 | 0.00 | 91 | 1017.4 |
| 20260903232543 | 19 | 0 | 0.0 | 17.7 | 0.00 | 0.46 | 0.00 | 91 | 1017.4 |
| 20260903232043 | 19 | 231 | 4.8 | 22.5 | 0.00 | 0.46 | 0.00 | 90 | 1017.4 |
| 20260903231604 | 19 | 0 | 1.6 | 22.5 | 0.00 | 0.46 | 0.00 | 90 | 1017.4 |
| 20260903231045 | 19 | 0 | 4.8 | 20.9 | 0.00 | 0.46 | 0.00 | 90 | 1017.5 |
| 20260903230545 | 19 | 242 | 3.2 | 19.3 | 0.00 | 0.46 | 0.00 | 90 | 1017.6 |
| 20260903230112 | 19 | 230 | 0.0 | 16.1 | 0.00 | 0.46 | 0.00 | 90 | 1017.5 |
| 20260903225545 | 19 | 238 | 1.6 | 16.1 | 0.00 | 0.46 | 0.00 | 90 | 1017.6 |
| 20260903225044 | 19 | 0 | 0.0 | 12.9 | 0.00 | 0.46 | 0.00 | 89 | 1017.8 |
| 20260903224630 | 19 | 0 | 0.0 | 12.9 | 0.00 | 0.46 | 0.00 | 89 | 1017.9 |
| 20260903224044 | 19 | 0 | 0.0 | 14.5 | 0.00 | 0.46 | 0.00 | 90 | 1017.8 |
| 20260903223545 | 19 | 0 | 0.0 | 14.5 | 0.00 | 0.46 | 0.00 | 90 | 1017.9 |
| 20260903223135 | 19 | 0 | 0.0 | 12.9 | 0.00 | 0.46 | 0.00 | 90 | 1018.0 |
| 20260903222545 | 19 | 237 | 0.0 | 12.9 | 0.00 | 0.46 | 0.00 | 90 | 1018.1 |
| 20260903222044 | 19 | 242 | 0.0 | 12.9 | 0.00 | 0.46 | 0.00 | 90 | 1018.0 |
| 20260903221559 | 19 | 0 | 0.0 | 12.9 | 0.00 | 0.46 | 0.00 | 90 | 1018.2 |
| 20260903221049 | 18 | 0 | 1.6 | 12.9 | 0.00 | 0.46 | 0.00 | 90 | 1018.1 |
| 20260903220544 | 18 | 0 | 0.0 | 9.7 | 0.00 | 0.46 | 0.00 | 91 | 1018.1 |
| 20260903220105 | 18 | 0 | 0.0 | 9.7 | 0.00 | 0.46 | 0.00 | 91 | 1018.0 |
| 20260903215545 | 18 | 0 | 0.0 | 14.5 | 0.00 | 0.46 | 0.46 | 91 | 1018.1 |
| 20260903215044 | 18 | 0 | 0.0 | 14.5 | 0.00 | 0.46 | 0.46 | 91 | 1018.4 |
| 20260903214606 | 18 | 0 | 0.0 | 14.5 | 0.00 | 0.46 | 0.46 | 91 | 1018.3 |
| 20260903214044 | 18 | 0 | 0.0 | 3.2 | 0.00 | 0.46 | 0.46 | 90 | 1018.4 |
| 20260903213546 | 18 | 0 | 0.0 | 6.4 | 0.00 | 0.46 | 0.46 | 90 | 1018.4 |
| 20260903213111 | 18 | 0 | 0.0 | 6.4 | 0.00 | 0.46 | 0.46 | 90 | 1018.4 |
| 20260903212541 | 18 | 224 | 0.0 | 0.0 | 0.00 | 0.46 | 0.46 | 90 | 1018.4 |
| 20260903212045 | 18 | 0 | 0.0 | 0.0 | 0.00 | 0.46 | 0.46 | 89 | 1018.5 |
| 20260903211601 | 18 | 0 | 0.0 | 0.0 | 0.00 | 0.46 | 0.46 | 89 | 1018.5 |
| 20260903211045 | 18 | 0 | 0.0 | 0.0 | 0.00 | 0.46 | 0.46 | 88 | 1018.5 |
| 20260903210546 | 18 | 0 | 0.0 | 3.2 | 0.00 | 0.46 | 0.46 | 88 | 1018.5 |
| 20260903210144 | 19 | 0 | 0.0 | 3.2 | 0.00 | 0.46 | 0.46 | 87 | 1018.7 |
| 20260903205544 | 19 | 0 | 0.0 | 12.9 | 0.00 | 0.46 | 0.46 | 87 | 1018.6 |
| 20260903205043 | 19 | 0 | 0.0 | 12.9 | 0.00 | 0.46 | 0.46 | 86 | 1018.7 |
| 20260903204607 | 19 | 0 | 0.0 | 12.9 | 0.00 | 0.46 | 0.46 | 86 | 1018.7 |
| 20260903204049 | 20 | 0 | 0.0 | 8.0 | 0.00 | 0.46 | 0.46 | 85 | 1018.7 |
| 20260903203543 | 20 | 0 | 0.0 | 22.5 | 0.00 | 0.46 | 0.46 | 85 | 1018.7 |
| 20260903203100 | 20 | 0 | 0.0 | 22.5 | 0.00 | 0.46 | 0.46 | 85 | 1018.7 |
| 20260903202544 | 20 | 232 | 1.6 | 22.5 | 0.00 | 0.46 | 0.46 | 86 | 1018.8 |
| 20260903202043 | 20 | 234 | 0.0 | 12.9 | 0.00 | 0.46 | 0.46 | 86 | 1018.7 |
| 20260903201601 | 20 | 0 | 0.0 | 12.9 | 0.00 | 0.46 | 0.46 | 86 | 1018.3 |
| 20260903201042 | 20 | 0 | 0.0 | 0.0 | 0.00 | 0.46 | 0.46 | 86 | 1018.5 |
| 20260903200542 | 20 | 0 | 0.0 | 0.0 | 0.00 | 0.46 | 0.46 | 86 | 1018.5 |
| 20260903200058 | 20 | 0 | 0.0 | 0.0 | 0.00 | 0.46 | 0.46 | 86 | 1018.4 |
| 20260903195543 | 20 | 0 | 0.0 | 0.0 | 0.00 | 0.46 | 0.46 | 87 | 1018.5 |
| 20260903195042 | 20 | 0 | 0.0 | 0.0 | 0.00 | 0.46 | 0.46 | 87 | 1018.3 |
| 20260903194606 | 20 | 0 | 0.0 | 0.0 | 0.00 | 0.46 | 0.46 | 87 | 1018.4 |
| 20260903194042 | 20 | 0 | 0.0 | 0.0 | 0.00 | 0.46 | 0.46 | 86 | 1018.5 |
| 20260903193543 | 20 | 0 | 0.0 | 0.0 | 0.00 | 0.46 | 0.46 | 86 | 1018.3 |
| 20260903193101 | 20 | 0 | 0.0 | 0.0 | 0.00 | 0.46 | 0.46 | 86 | 1018.2 |
| 20260903192543 | 20 | 0 | 0.0 | 0.0 | 0.00 | 0.46 | 0.46 | 86 | 1018.2 |
| 20260903192042 | 20 | 0 | 0.0 | 0.0 | 0.00 | 0.46 | 0.46 | 86 | 1018.3 |
| 20260903191602 | 20 | 0 | 0.0 | 0.0 | 0.00 | 0.46 | 0.46 | 86 | 1018.4 |
| 20260903191046 | 20 | 0 | 0.0 | 0.0 | 0.00 | 0.46 | 0.46 | 85 | 1018.3 |
| 20260903190543 | 20 | 0 | 0.0 | 0.0 | 0.00 | 0.46 | 0.46 | 85 | 1018.3 |
| 20260903190107 | 20 | 0 | 0.0 | 4.8 | 0.00 | 0.46 | 0.46 | 85 | 1018.4 |
| 20260903185542 | 20 | 0 | 0.0 | 6.4 | 0.00 | 0.46 | 0.46 | 85 | 1018.5 |
| 20260903185042 | 20 | 0 | 0.0 | 6.4 | 0.00 | 0.46 | 0.46 | 85 | 1018.7 |
| 20260903184606 | 20 | 0 | 0.0 | 6.4 | 0.00 | 0.46 | 0.46 | 84 | 1018.8 |
| 20260903184042 | 20 | 0 | 0.0 | 14.5 | 0.00 | 0.46 | 0.46 | 84 | 1018.9 |
| 20260903183542 | 20 | 0 | 1.6 | 14.5 | 0.00 | 0.46 | 0.46 | 84 | 1018.6 |
| 20260903183112 | 20 | 0 | 0.0 | 6.4 | 0.00 | 0.46 | 0.46 | 84 | 1018.5 |
| 20260903182543 | 20 | 0 | 0.0 | 8.0 | 0.00 | 0.46 | 0.46 | 84 | 1018.3 |
| 20260903182042 | 20 | 0 | 0.0 | 8.0 | 0.00 | 0.46 | 0.46 | 83 | 1018.3 |
| 20260903181603 | 20 | 0 | 0.0 | 4.8 | 0.00 | 0.46 | 0.46 | 83 | 1018.4 |
| 20260903181042 | 20 | 0 | 0.0 | 4.8 | 0.00 | 0.46 | 0.46 | 83 | 1018.2 |
| 20260903180543 | 20 | 0 | 0.0 | 11.3 | 0.00 | 0.46 | 0.46 | 82 | 1018.1 |
| 20260903180109 | 20 | 0 | 0.0 | 11.3 | 0.00 | 0.46 | 0.46 | 82 | 1018.1 |
| 20260903175543 | 20 | 0 | 0.0 | 11.3 | 0.00 | 0.46 | 0.46 | 82 | 1018.0 |
| 20260903175043 | 20 | 0 | 0.0 | 11.3 | 0.00 | 0.46 | 0.46 | 83 | 1018.1 |
| 20260903174558 | 20 | 221 | 0.0 | 0.0 | 0.00 | 0.46 | 0.46 | 84 | 1018.2 |
| 20260903174043 | 20 | 0 | 0.0 | 0.0 | 0.00 | 0.46 | 0.46 | 84 | 1018.1 |
| 20260903173544 | 20 | 0 | 0.0 | 12.9 | 0.00 | 0.46 | 0.46 | 83 | 1018.1 |
| 20260903173104 | 20 | 0 | 0.0 | 12.9 | 0.00 | 0.46 | 0.46 | 83 | 1018.3 |
| 20260903172542 | 20 | 0 | 1.6 | 12.9 | 0.00 | 0.46 | 0.46 | 83 | 1018.3 |
| 20260903172042 | 20 | 0 | 0.0 | 0.0 | 0.00 | 0.46 | 0.46 | 83 | 1018.4 |
| 20260903171614 | 20 | 0 | 0.0 | 0.0 | 0.00 | 0.46 | 0.46 | 83 | 1018.3 |
| 20260903171043 | 20 | 0 | 0.0 | 9.7 | 0.00 | 0.46 | 0.46 | 82 | 1018.2 |
| 20260903170546 | 20 | 0 | 0.0 | 12.9 | 0.00 | 0.46 | 0.46 | 82 | 1018.1 |
| 20260903170109 | 21 | 0 | 0.0 | 17.7 | 0.00 | 0.46 | 0.46 | 81 | 1018.1 |
| 20260903165542 | 21 | 239 | 3.2 | 25.7 | 0.00 | 0.46 | 0.46 | 80 | 1018.1 |
| 20260903165042 | 21 | 213 | 3.2 | 25.7 | 0.00 | 0.46 | 0.46 | 80 | 1017.9 |
| 20260903164609 | 21 | 0 | 1.6 | 25.7 | 0.00 | 0.46 | 0.46 | 81 | 1018.0 |
| 20260903164043 | 21 | 0 | 1.6 | 25.7 | 0.00 | 0.46 | 0.46 | 80 | 1018.0 |
| 20260903163545 | 21 | 207 | 4.8 | 19.3 | 0.00 | 0.46 | 0.46 | 81 | 1017.9 |
| 20260903163104 | 21 | 0 | 0.0 | 17.7 | 0.00 | 0.46 | 0.46 | 81 | 1017.9 |
| 20260903162542 | 21 | 211 | 4.8 | 27.4 | 0.00 | 0.46 | 0.46 | 80 | 1017.9 |
| 20260903162041 | 21 | 229 | 8.0 | 27.4 | 0.00 | 0.46 | 0.46 | 80 | 1018.0 |
| 20260903161604 | 21 | 249 | 3.2 | 22.5 | 0.00 | 0.46 | 0.46 | 80 | 1018.1 |
| 20260903161043 | 21 | 228 | 8.0 | 22.5 | 0.00 | 0.46 | 0.46 | 80 | 1018.1 |
| 20260903160543 | 21 | 208 | 4.8 | 27.4 | 0.00 | 0.46 | 0.46 | 80 | 1017.9 |
| 20260903160109 | 21 | 0 | 6.4 | 27.4 | 0.00 | 0.46 | 0.46 | 80 | 1017.9 |
| 20260903155542 | 21 | 237 | 6.4 | 27.4 | 0.00 | 0.46 | 0.46 | 79 | 1017.9 |
| 20260903155042 | 21 | 241 | 8.0 | 30.6 | 0.00 | 0.46 | 0.46 | 79 | 1018.1 |
| 20260903154609 | 21 | 236 | 4.8 | 30.6 | 0.00 | 0.46 | 0.46 | 78 | 1018.1 |
| 20260903154047 | 21 | 183 | 11.3 | 33.8 | 0.00 | 0.46 | 0.46 | 78 | 1018.1 |
| 20260903153544 | 21 | 229 | 6.4 | 33.8 | 0.00 | 0.46 | 0.46 | 78 | 1018.2 |
| 20260903153107 | 21 | 216 | 9.7 | 29.0 | 0.00 | 0.46 | 0.46 | 79 | 1018.3 |
| 20260903152543 | 21 | 240 | 9.7 | 29.0 | 0.00 | 0.46 | 0.46 | 80 | 1018.2 |
| 20260903152042 | 21 | 0 | 1.6 | 27.4 | 0.00 | 0.46 | 0.46 | 80 | 1018.1 |
| 20260903151604 | 21 | 215 | 8.0 | 27.4 | 0.00 | 0.46 | 0.46 | 79 | 1018.1 |
| 20260903151046 | 21 | 210 | 6.4 | 27.4 | 0.00 | 0.46 | 0.46 | 78 | 1018.2 |